Regional Weather Roundup
Issued by NWS

Current Version | Previous Version | Text Only | Print | Product List | Glossary On
Versions: 1 2 3 4 5 6 7 8 9 10 11 12 13 14 15 16 17 18 19 20 21 22 23 24 25 26 27 28 29 30 31 32 33 34 35 36 37 38 39 40 41 42 43 44 45 46 47 48 49 50
000
ASUS46 KSEW 232110
RWRWA

WASHINGTON REGIONAL WEATHER ROUNDUP
NATIONAL WEATHER SERVICE SEATTLE WA
200 PM PDT TUE SEP 23 2014

NOTE:"FAIR" INDICATES FEW OR NO CLOUDS BELOW 12,000 FEET WITH NO
SIGNIFICANT WEATHER AND/OR OBSTRUCTIONS TO VISIBILITY.

WAZ505-507>509-232200-
SEATTLE, TACOMA, EVERETT, AND VICINITY

CITY           SKY/WX    TMP DP  RH WIND       PRES   REMARKS
EVERETT        LGT RAIN  67  59  75 S10       29.82F
BOEING FIELD   LGT RAIN  68  60  75 CALM      29.81F
RENTON         CLOUDY    67  61  81 CALM      29.80F
SEATAC AIRPORT CLOUDY    65  60  84 W5        29.83F
JBLM-MCCHORD   CLOUDY    64  61  90 CALM      29.82F
PUYALLUP       NOT AVBL
JBLM-FT LEWIS  LGT RAIN  64  61  88 CALM      29.82F
TACOMA NARROWS LGT RAIN  62  58  86 CALM      29.83F FOG
$$

WAZ001-503-506-510-514-515-232200-
NORTH INTERIOR

CITY           SKY/WX    TMP DP  RH WIND       PRES   REMARKS
BELLINGHAM     LGT RAIN  69  58  67 SE3       29.78F
FRIDAY HARBOR  RAIN      61  59  93 CALM      29.79S FOG
EASTSOUND      LGT RAIN  64  59  82 CALM      29.77R
PORT ANGELES     N/A     60  57  89 CALM      29.76F
NAS WHIDBEY    LGT RAIN  66  58  75 SE18      29.78S
BURLINGTON     PTSUNNY   70  57  64 S3        29.79S
$$

WAZ020-022-039-040-504-511-512-232200-
SOUTHWEST INTERIOR

CITY           SKY/WX    TMP DP  RH WIND       PRES   REMARKS
SHELTON        CLOUDY    63  59  87 CALM      29.81S
OLYMPIA        CLOUDY    63  59  87 CALM      29.83S
CHEHALIS       FAIR      66  63  88 VRB5      29.82S
KELSO          CLOUDY    66  57  72 SE5       29.86S
VANCOUVER      LGT RAIN  67  58  72 SE6       29.84F
SCAPPOOSE, OR  LGT RAIN  67  60  78 SE8       29.83S
PORTLAND, OR   LGT RAIN  67  59  75 E8        29.84F
$$

WAZ021-516-517-232200-
WASHINGTON COAST

CITY           SKY/WX    TMP DP  RH WIND       PRES   REMARKS
FORKS          CLOUDY    62  60  93 S9        29.75F
HOQUIAM        CLOUDY    63  61  93 E5        29.80F
ASTORIA, OR    CLOUDY    63  59  87 W5        29.80S
$$

WAZ019-023-024-040-518-519-232200-
CASCADE MOUNTAINS AND COLUMBIA GORGE

CITY           SKY/WX    TMP DP  RH WIND       PRES   REMARKS
STAMPEDE PASS  NOT AVBL
TROUTDALE, OR  LGT RAIN  69  56  62 E3        29.84R
THE DALLES, OR CLOUDY    71  52  50 NW5       29.82F
$$

WAZ026-027-041>044-520-521-232200-
EAST SLOPES

CITY           SKY/WX    TMP DP  RH WIND       PRES   REMARKS
OMAK           LGT RAIN  71  55  56 SE9       29.88F
WENATCHEE      CLOUDY    67  51  56 NW5       29.88S
ELLENSBURG     CLOUDY    69  53  56 CALM      29.86F
YAKIMA         CLOUDY    73  51  46 W7        29.85R
$$

WAZ028-034-035-232200-
COLUMBIA BASIN

CITY           SKY/WX    TMP DP  RH WIND       PRES   REMARKS
EPHRATA        CLOUDY    75  54  47 N8        29.85S
MOSES LAKE     CLOUDY    76  54  46 NW7       29.86R
PASCO          CLOUDY    78  57  48 CALM      29.83S
HERMISTON, OR  CLOUDY    78  53  41 CALM      29.82F
$$

WAZ036>038-232200-
NORTHEAST WASHINGTON

CITY           SKY/WX    TMP DP  RH WIND       PRES   REMARKS
SPOKANE GEIGER CLOUDY    74  56  53 NE10      29.89F
SPOKANE FELTS  CLOUDY    77  56  48 VRB5      29.88F
FAIRCHILD AFB  CLOUDY    74  56  54 NE9       29.90F
COEURDALENE,ID CLOUDY    73  55  53 N9        29.90F
DEER PARK      CLOUDY    74  54  49 N7        29.90F
$$

WAZ029>033-232200-
SOUTHEAST WASHINGTON

CITY           SKY/WX    TMP DP  RH WIND       PRES   REMARKS
PULLMAN        CLOUDY    79  53  40 SW10      29.93F
LEWISTON, ID   CLOUDY    80  58  46 CALM      29.87F
WALLA WALLA    CLOUDY    81  57  43 W12       29.85F
PENDLETON, OR  CLOUDY    77  54  44 NW10      29.85S
$$



USA.gov is the U.S. government's official web portal to all federal, state and local government web resources and services.